Location: Unspecified
(0.0000°N, 0.0000°E)
Time: 20:46:47
(UTC+00:00)

Vanguard 2 Rocket - Visible Passes

Search period start: 31 March 2015 00:00
Search period end: 10 April 2015 00:00
Orbit: 555 x 3332 km, 32.9° (Epoch: 31 March)

Date Brightness Start Highest point End Pass type
(mag) Time Alt. Az. Time Alt. Az. Time Alt. Az.
31 Mar 9.8 20:02:19 10° SW 20:19:31 40° SSE 20:22:39 39° SE visible
31 Mar 10.2 22:18:59 10° SW 22:28:33 36° SW 22:28:33 36° SW visible
01 Apr 10.2 19:02:45 10° SSW 19:17:22 31° SSE 19:27:27 22° ESE visible
01 Apr 9.7 21:18:07 10° SW 21:33:21 56° SSW 21:33:21 56° SSW visible
01 Apr 11.0 23:37:27 10° WSW 23:39:15 14° WSW 23:39:15 14° WSW visible
02 Apr 10.4 18:03:43 10° SSW 18:15:16 23° SSE 18:30:06 10° ESE visible
02 Apr 9.6 20:17:55 10° SW 20:36:27 53° SSE 20:38:15 53° SE visible
02 Apr 10.3 22:35:19 10° WSW 22:44:10 34° WSW 22:44:10 34° WSW visible
03 Apr 9.9 19:18:20 10° SSW 19:34:33 41° SSE 19:43:17 31° ESE visible
03 Apr 9.6 21:34:06 10° SW 21:49:12 61° SW 21:49:12 61° SW visible
04 Apr 10.1 18:19:18 10° SSW 18:32:44 31° SSE 18:48:27 12° E visible
04 Apr 9.3 20:33:39 10° SW 20:52:59 71° SE 20:54:22 70° ESE visible
04 Apr 10.5 22:52:17 10° WSW 23:00:18 29° W 23:00:18 29° W visible
05 Apr 9.6 19:33:54 10° SW 19:51:14 56° SE 19:59:42 40° E visible
05 Apr 9.7 21:50:30 10° WSW 22:05:38 58° W 22:05:38 58° W visible
06 Apr 9.8 18:34:46 10° SSW 18:49:38 42° SSE 19:05:10 17° E visible
06 Apr 9.3 20:49:40 10° SW 21:09:15 89° NW 21:11:09 80° NE visible
06 Apr 10.6 23:10:03 10° W 23:17:06 24° W 23:17:06 24° W visible
07 Apr 9.4 19:49:39 10° SW 20:07:35 74° SE 20:16:48 43° ENE visible
07 Apr 9.9 22:07:30 10° WSW 22:22:47 49° WNW 22:22:47 49° WNW visible
08 Apr10.800:58:54NNE00:58:54NNE00:28:47Wvisible
08 Apr 9.6 18:50:19 10° SW 19:06:04 57° SE 19:22:39 18° ENE visible
08 Apr 9.5 21:06:07 10° WSW 21:25:29 69° NW 21:28:39 63° N visible
08 Apr 10.8 23:28:53 10° W 23:34:39 19° WNW 23:34:39 19° WNW visible
09 Apr 9.5 20:05:43 10° SW 20:23:48 86° NW 20:34:42 38° NE visible
09 Apr 10.2 22:25:20 10° W 22:40:44 38° NW 22:40:44 38° NW visible
